Flag for Iran Weather past 2 weeks in Mashhad, Iran

Now
39 °F

Mostly cloudy.


Feels Like: 36 °F
Forecast: 29 / 44 °F
Wind: 5 mph from East

Location: Mashhad Airport

Current Time: Dec 17, 2014 at 11:40:08 PM

Latest Report: Dec 17, 2014 at 11:00 PM


Visibility: 4 mi

Pressure: 30.27 "Hg

Humidity: 100%

Dew point: 39 °F

Location of MashhadLocation

Historic Weather in Mashhad — Graph

°F

Mashhad temperature yesterday

Maximum temperature yesterday: 50 °F (at 1:30 PM)
Minimum temperature yesterday: 28 °F (at 6:00 AM)
Average temperature yesterday: 39 °F

Past Weeks' High & Low Weather Summary

 TemperatureHumidityPressure
High57 °F (Dec 10, 1:30 PM)100% (Dec 3, 4:00 AM)30.69 "Hg (Dec 3, 4:00 AM)
Low25 °F (Dec 8, 5:30 AM)12% (Dec 15, 2:00 PM)30.12 "Hg (Dec 2, 10:30 PM)
Average38 °F67%30.33 "Hg
* Reported Dec 2 10:30 PM — Dec 17 10:30 PM, Mashhad, Weather by CustomWeather, © 2014

Note: Actual official high and low records may vary slightly from our data, if they occured in-between our weather recording intervals... More about our weather records

Advertising

Mashhad weather history for previous 24 hours

 ConditionsComfort  
Time TempWeatherWind HumidityBarometerVisibility
10:30 PM
Dec 17
39 °FMostly cloudy.5 mph93%30.27 "Hg4 mi
10:00 PM39 °FMostly cloudy.5 mph93%30.27 "Hg4 mi
9:30 PM39 °FMostly cloudy.7 mph93%30.27 "Hg5 mi
8:55 PM39 °FMostly cloudy.5 mph93%30.27 "Hg5 mi
8:30 PM41 °FMostly cloudy.7 mph87%30.27 "Hg5 mi
8:00 PM41 °FMostly cloudy.7 mph87%30.27 "Hg4 mi
7:30 PM41 °FMostly cloudy.7 mph87%30.27 "Hg4 mi
7:00 PM41 °FMostly cloudy.7 mph87%30.27 "Hg4 mi
6:30 PM41 °FMostly cloudy.5 mph87%30.27 "Hg4 mi
6:00 PM41 °FMostly cloudy.7 mph87%30.27 "Hg4 mi
5:30 PM41 °FMostly cloudy.7 mph87%30.27 "Hg4 mi
5:00 PM41 °FFog.5 mph81%30.24 "Hg3 mi
4:30 PM41 °FMostly cloudy.7 mph81%30.24 "Hg4 mi
4:00 PM41 °FBroken clouds.7 mph87%30.24 "Hg4 mi
3:30 PM41 °FBroken clouds.7 mph87%30.24 "Hg4 mi
3:00 PM43 °FBroken clouds.9 mph81%30.24 "Hg4 mi
2:30 PM43 °FBroken clouds.7 mph81%30.24 "Hg4 mi
1:30 PM43 °FBroken clouds.7 mph81%30.24 "Hg4 mi
1:00 PM43 °FBroken clouds.7 mph81%30.27 "Hg4 mi
12:30 PM43 °FFog.5 mph81%30.27 "Hg2 mi
12:00 PM41 °FFog.5 mph93%30.27 "Hg2 mi
11:30 AM41 °FFog.9 mph93%30.30 "Hg2 mi
11:00 AM41 °FFog.7 mph93%30.30 "Hg2 mi
10:30 AM41 °FBroken clouds.7 mph87%30.33 "Hg4 mi
10:00 AM41 °FFog.5 mph93%30.33 "Hg2 mi
9:30 AM39 °FFog.5 mph100%30.33 "Hg2 mi
9:00 AM37 °FFog.5 mph100%30.33 "Hg2 mi
8:30 AM37 °FFog.5 mph100%30.33 "Hg2 mi
7:55 AM37 °FFog.5 mph100%30.33 "Hg2 mi
7:30 AM37 °FFog.5 mph100%30.30 "Hg3 mi
7:00 AM36 °FFog.No wind100%30.30 "Hg2 mi
6:30 AM37 °FFog.7 mph100%30.30 "Hg2 mi
6:00 AM37 °FFog.5 mph100%30.30 "Hg3 mi
5:30 AM37 °FFog.5 mph100%30.30 "Hg2 mi
5:00 AM37 °FFog.5 mph100%30.30 "Hg2 mi
4:30 AM37 °FFog.5 mph100%30.30 "Hg2 mi
4:00 AM37 °FFog.5 mph100%30.30 "Hg2 mi
3:20 AM37 °FFog.No wind100%30.30 "Hg2 mi
3:00 AM37 °FFog.No wind100%30.27 "Hg2 mi
2:30 AM36 °FHaze.No wind100%30.27 "Hg2 mi
2:00 AM36 °FHaze.5 mph100%30.27 "Hg2 mi
1:30 AM37 °FHaze.5 mph100%30.27 "Hg2 mi
1:00 AM37 °FClear.5 mph100%30.27 "Hg4 mi
12:30 AM36 °FClear.5 mph87%30.27 "Hg4 mi
12:00 AM37 °FClear.5 mph87%30.30 "Hg10 mi
11:30 PM
Dec 16
37 °FClear.5 mph87%30.30 "Hg10 mi
11:00 PM37 °FClear.No wind87%30.30 "Hg10 mi
Weather by CustomWeather, © 2014

See weather overviewHow to use our weather pages